This is the latest recevied weather packets stored in our database for station/object KC3QJO. If no packets are shown the sender has not sent any weather packets the latest 10 day(s).
| Time | Temp. | Humidity | Pressure | Rain* | Wind** | Luminosity | Snow |
|---|---|---|---|---|---|---|---|
| 1777714265 | 7.22° C | 89% | 1010.3 hPa | 0 mm | - | 0 W/m² | - |
| 1777713358 | 7.22° C | 89% | 1010.3 hPa | 0 mm | - | 0 W/m² | - |
| 1777713053 | 7.22° C | 89% | 1010.4 hPa | 0 mm | - | 0 W/m² | - |
| 1777709152 | 7.78° C | 87% | 1010.3 hPa | 0.25 mm | - | 0 W/m² | - |
| 1777708255 | 8.33° C | 86% | 1010.1 hPa | 0.51 mm | - | 0 W/m² | - |
| 1777707961 | 8.33° C | 85% | 1010.2 hPa | 0.51 mm | - | 0 W/m² | - |
| 1777707050 | 8.33° C | 84% | 1010.2 hPa | 0.51 mm | - | 0 W/m² | - |
| 1777705552 | 8.33° C | 83% | 1010.4 hPa | 0.25 mm | - | 0 W/m² | - |
| 1777704652 | 8.89° C | 82% | 1010.9 hPa | 0 mm | - | 0 W/m² | - |
| 1777704055 | 8.89° C | 81% | 1011 hPa | 0 mm | - | 0 W/m² | - |
| 1777703453 | 8.89° C | 79% | 1011.2 hPa | 0 mm | - | 0 W/m² | - |
| 1777702252 | 9.44° C | 77% | 1011 hPa | 0 mm | - | 0 W/m² | - |
| 1777700762 | 9.44° C | 76% | 1011.3 hPa | 0 mm | - | 0 W/m² | - |
| 1777700151 | 9.44° C | 76% | 1011.3 hPa | 0 mm | - | 0 W/m² | - |
| 1777698057 | 10° C | 76% | 1011.2 hPa | 0 mm | - | 0 W/m² | - |
| 1777697754 | 10° C | 76% | 1011.2 hPa | 0 mm | - | 0 W/m² | - |
| 1777695651 | 10.56° C | 72% | 1010.8 hPa | 0 mm | - | 0 W/m² | - |
| 1777694154 | 10.56° C | 72% | 1010.8 hPa | 0 mm | - | 0 W/m² | - |
| 1777692952 | 10.56° C | 72% | 1010.6 hPa | 0 mm | - | 0 W/m² | - |
| 1777692053 | 10.56° C | 69% | 1010.4 hPa | 0 mm | - | 0 W/m² | - |
| 1777690854 | 10.56° C | 69% | 1010.4 hPa | 0 mm | - | 0 W/m² | - |
| 1777687255 | 11.67° C | 66% | 1010.8 hPa | 0 mm | - | 0 W/m² | - |
| 1777683653 | 12.78° C | 57% | 1010.6 hPa | 0 mm | - | 0 W/m² | - |
| 1777682154 | 13.33° C | 54% | 1010.4 hPa | 0 mm | - | 0 W/m² | - |
| 1777681552 | 13.89° C | 51% | 1010.3 hPa | 0 mm | - | 0 W/m² | - |
* Rain latest hour (hover to see other rain measurements)
** Current wind speed in m/s (hover to see current wind gust speed)